Weather History for KGTB - January, 2013

Change the Weather History Date:

Friday, January 18, 2013

  Actual Average Record
Temperature  
Mean Temperature 12 °F -  
Max Temperature 24 °F 20 °F 44 °F (1999)
Min Temperature 1 °F 4 °F -23 °F (1997)
Degree Days  
Heating Degree Days 54    
Moisture  
Dew Point 7 °F    
Average Humidity 66    
Maximum Humidity 83    
Minimum Humidity 41    
Precipitation  
Precipitation 0.00 in - - ()
Sea Level Pressure  
Sea Level Pressure 30.31 in    
Wind  
Wind Speed 7 mph (SSW)    
Max Wind Speed 17 mph    
Max Gust Speed 23 mph    
Visibility 10 miles    
Events Snow    
Averages and records for this station are not official NWS values.
T = Trace of Precipitation, MM = Missing Value Source: NWS Daily Summary

Daily Weather History Graph

Daily Weather History Graph

Search for Another Location

Airport or City:

Trip Planner

Search our weather history database for the weather conditions in past years. The results will help you decide how hot, cold, wet, or windy it might be!

Date:

Astronomy

Jan. 18, 2013 Rise Set
Actual Time 7:32 AM EST 4:54 PM EST
Civil Twilight 7:00 AM EST 5:26 PM EST
Nautical Twilight 6:25 AM EST 6:01 PM EST
Astronomical Twilight 5:50 AM EST 6:36 PM EST
Moon 10:52 AM EST (1/18) No Moon Set
Length of Visible Light 10h 25m
Length of Day
9h 21m
Waxing Crescent, 47% of the Moon is Illuminated
Jan 18
Waxing Crescent
Jan 18
First Quarter
Jan 26
Full
Feb 3
Last Quarter
Feb 10
New

Hourly Weather History & Observations

Time (EST) Temp. Windchill Dew Point Humidity Pressure Visibility Wind Dir Wind Speed Gust Speed Precip Events Conditions
1:55 AM 3.6 °F -3.8 °F -2.6 °F 76% 30.23 in 10.0 mi SSW 3.5 mph - N/A   Mostly Cloudy
2:55 AM 3.9 °F - -1.8 °F 77% 30.26 in 10.0 mi Calm Calm - N/A   Mostly Cloudy
3:55 AM 1.6 °F - -2.6 °F 83% 30.27 in 10.0 mi Calm Calm - N/A   Clear
5:56 AM 3.9 °F -3.4 °F -3.8 °F 70% 30.36 in 10.0 mi WSW 3.5 mph - N/A   Partly Cloudy
6:56 AM 2.8 °F -6.6 °F -1.5 °F 82% 30.39 in 10.0 mi SSW 4.6 mph - N/A   Overcast
7:55 AM 2.8 °F -6.6 °F -2.9 °F 77% 30.38 in 10.0 mi South 4.6 mph - N/A   Scattered Clouds
8:55 AM 8.6 °F 2.0 °F -1.5 °F 64% 30.40 in 10.0 mi South 3.5 mph - N/A   Partly Cloudy
9:55 AM 12.6 °F 1.1 °F 0.5 °F 59% 30.41 in 10.0 mi WNW 8.1 mph - N/A   Partly Cloudy
10:55 AM 15.4 °F 6.8 °F 1.9 °F 55% 30.41 in 10.0 mi Variable 5.8 mph - N/A   Clear
11:55 AM 18.5 °F 9.3 °F 1.9 °F 49% 30.39 in 10.0 mi West 6.9 mph - N/A   Scattered Clouds
12:55 PM 19.2 °F 7.7 °F -0.9 °F 41% 30.38 in 10.0 mi West 10.4 mph 19.6 mph N/A   Partly Cloudy
1:55 PM 20.8 °F 9.0 °F 2.1 °F 44% 30.36 in 10.0 mi West 11.5 mph 17.3 mph N/A   Clear
2:55 PM 20.3 °F 9.8 °F 3.4 °F 48% 30.34 in 10.0 mi West 9.2 mph - N/A   Clear
3:55 PM 19.4 °F 8.6 °F 8.2 °F 62% 30.34 in 10.0 mi SW 9.2 mph - N/A   Mostly Cloudy
3:56 PM 19.4 °F 8.6 °F 8.6 °F 63% 30.34 in 10.0 mi SW 9.2 mph - N/A Snow Light Snow
3:57 PM 19.4 °F 7.9 °F 8.6 °F 63% 30.34 in 10.0 mi SW 10.4 mph - N/A Snow Light Snow
4:03 PM 19.4 °F 8.6 °F 10.4 °F 68% 30.34 in 10.0 mi SW 9.2 mph - N/A Snow Light Snow
4:52 PM 19.4 °F 7.9 °F 12.2 °F 74% 30.32 in 10.0 mi South 10.4 mph - N/A   Overcast
4:55 PM 19.0 °F 5.0 °F 11.5 °F 72% 30.31 in 10.0 mi South 15.0 mph - 0.00 in   Overcast
5:04 PM 19.4 °F 6.6 °F 12.2 °F 74% 30.31 in 10.0 mi SSW 12.7 mph - N/A Snow Light Snow
5:06 PM 19.4 °F 6.0 °F 10.4 °F 68% 30.31 in 10.0 mi South 13.8 mph - N/A   Overcast
5:11 PM 19.4 °F 7.2 °F 10.4 °F 68% 30.31 in 10.0 mi South 11.5 mph - N/A Snow Light Snow
5:14 PM 19.4 °F 7.2 °F 10.4 °F 68% 30.31 in 10.0 mi South 11.5 mph - N/A   Overcast
5:20 PM 19.4 °F 7.2 °F 12.2 °F 74% 30.31 in 10.0 mi South 11.5 mph - N/A Snow Light Snow
5:21 PM 19.4 °F 6.6 °F 12.2 °F 74% 30.31 in 10.0 mi South 12.7 mph - N/A   Overcast
5:22 PM 19.4 °F 6.0 °F 12.2 °F 74% 30.30 in 10.0 mi South 13.8 mph - N/A Snow Light Snow
5:35 PM 19.4 °F 6.6 °F 12.2 °F 74% 30.30 in 10.0 mi South 12.7 mph - N/A Snow Light Snow
5:41 PM 19.4 °F 6.6 °F 12.2 °F 74% 30.30 in 10.0 mi South 12.7 mph - N/A   Overcast
5:55 PM 18.9 °F 6.5 °F 12.4 °F 76% 30.29 in 10.0 mi South 11.5 mph - 0.00 in   Overcast
6:41 PM 19.4 °F 4.5 °F 10.4 °F 68% 30.29 in 10.0 mi SSW 17.3 mph 23.0 mph N/A   Overcast
6:55 PM 19.4 °F 5.5 °F 9.5 °F 65% 30.29 in 10.0 mi SSW 15.0 mph - N/A   Overcast
7:55 PM 18.5 °F 4.3 °F 8.4 °F 65% 30.26 in 10.0 mi South 15.0 mph - N/A   Overcast
8:55 PM 19.6 °F 6.2 °F 8.1 °F 61% 30.23 in 10.0 mi South 13.8 mph - N/A   Overcast
9:55 PM 21.4 °F 9.7 °F 9.1 °F 59% 30.19 in 10.0 mi South 11.5 mph - N/A   Scattered Clouds
10:55 PM 22.5 °F 11.7 °F 11.3 °F 62% 30.14 in 10.0 mi SSE 10.4 mph - N/A   Mostly Cloudy
11:55 PM 24.4 °F 13.5 °F 10.9 °F 57% 30.10 in 10.0 mi South 11.5 mph - N/A   Clear